"Period start","avg(HW err(1)/warn(2) (#))","avg(Visibility (m))","avg(Weather code (#))","avg(Precip intensity (mm/h))","min(HW err(1)/warn(2) (#))","max(HW err(1)/warn(2) (#))","std(HW err(1)/warn(2) (#))","med(HW err(1)/warn(2) (#))","min(Visibility (m))","max(Visibility (m))","std(Visibility (m))","med(Visibility (m))","min(Weather code (#))","max(Weather code (#))","std(Weather code (#))","med(Weather code (#))","min(Precip intensity (mm/h))","max(Precip intensity (mm/h))","std(Precip intensity (mm/h))","med(Precip intensity (mm/h))"
2016-08-15 00:40:00,2,40318,0,0.00,2,2,0,2,18716,50000,11741,45294,0,0,0,0,0.00,0.00,0.00,0.00
2016-08-15 00:50:00,0,37827,0,0.00,0,0,0,0,28133,50000,5597,36876,0,0,0,0,0.00,0.00,0.00,0.00
2016-08-15 01:00:00,0,33793,0,0.00,0,0,0,0,15951,50000,9837,35952,0,0,0,0,0.00,0.00,0.00,0.00
2016-08-15 01:10:00,0,38204,0,0.00,0,0,0,0,17926,48781,10472,41374,0,0,0,0,0.00,0.00,0.00,0.00
2016-08-15 01:20:00,0,27864,0,0.00,0,0,0,0,17511,40647,6490,28473,0,0,0,0,0.00,0.00,0.00,0.00
2016-08-15 01:30:00,0,36558,0,0.00,0,0,0,0,26031,44647,5889,37120,0,0,0,0,0.00,0.00,0.00,0.00
2016-08-15 01:40:00,0,33966,0,0.00,0,0,0,0,23309,50000,9226,32448,0,0,0,0,0.00,0.00,0.00,0.00
2016-08-15 01:50:00,0,37903,0,0.00,0,0,0,0,27058,48506,6598,38780,0,0,0,0,0.00,0.00,0.00,0.00
2016-08-15 02:00:00,0,32846,0,0.00,0,0,0,0,14156,48000,10496,31802,0,0,0,0,0.00,0.00,0.00,0.00
2016-08-15 02:10:00,0,37413,0,0.00,0,0,0,0,20375,49557,9404,40386,0,0,0,0,0.00,0.00,0.00,0.00
2016-08-15 02:20:00,0,45771,0,0.00,0,0,0,0,37206,50000,3971,46834,0,0,0,0,0.00,0.00,0.00,0.00
2016-08-15 02:30:00,0,34920,0,0.00,0,0,0,0,19306,47510,9089,37432,0,0,0,0,0.00,0.00,0.00,0.00
2016-08-15 02:40:00,0,35307,0,0.00,0,0,0,0,23637,50000,8640,36300,0,0,0,0,0.00,0.00,0.00,0.00
2016-08-15 02:50:00,0,39889,0,0.00,0,0,0,0,27713,49436,7593,40501,0,0,0,0,0.00,0.00,0.00,0.00
2016-08-15 03:00:00,0,46363,0,0.00,0,0,0,0,39030,50000,4167,48016,0,0,0,0,0.00,0.00,0.00,0.00
2016-08-15 03:10:00,0,47045,0,0.00,0,0,0,0,39824,50000,3197,47285,0,0,0,0,0.00,0.00,0.00,0.00
2016-08-15 03:20:00,0,49570,0,0.00,0,0,0,0,47848,50000,722,50000,0,0,0,0,0.00,0.00,0.00,0.00
2016-08-15 03:30:00,0,45624,0,0.00,0,0,0,0,39507,50000,3430,46663,0,0,0,0,0.00,0.00,0.00,0.00
2016-08-15 03:40:00,0,42259,0,0.00,0,0,0,0,31899,50000,6399,41520,0,0,0,0,0.00,0.00,0.00,0.00
2016-08-15 03:50:00,0,42660,0,0.00,0,0,0,0,30466,50000,6659,45252,0,0,0,0,0.00,0.00,0.00,0.00
2016-08-15 04:00:00,0,44377,0,0.00,0,0,0,0,40531,50000,3214,43468,0,0,0,0,0.00,0.00,0.00,0.00
2016-08-15 04:10:00,0,44084,0,0.00,0,0,0,0,37607,50000,4225,42622,0,0,0,0,0.00,0.00,0.00,0.00
2016-08-15 04:20:00,0,43867,0,0.00,0,0,0,0,34272,50000,5225,44086,0,0,0,0,0.00,0.00,0.00,0.00
2016-08-15 04:30:00,0,42937,0,0.00,0,0,0,0,30912,50000,5558,43525,0,0,0,0,0.00,0.00,0.00,0.00
2016-08-15 04:40:00,0,44772,0,0.00,0,0,0,0,38188,47671,2579,45076,0,0,0,0,0.00,0.00,0.00,0.00
2016-08-15 04:50:00,0,45998,0,0.00,0,0,0,0,41962,50000,2557,45350,0,0,0,0,0.00,0.00,0.00,0.00
2016-08-15 05:00:00,0,49067,0,0.00,0,0,0,0,45434,50000,1390,49699,0,0,0,0,0.00,0.00,0.00,0.00
2016-08-15 05:10:00,0,49197,0,0.00,0,0,0,0,44497,50000,1652,50000,0,0,0,0,0.00,0.00,0.00,0.00
2016-08-15 05:20:00,0,47090,0,0.00,0,0,0,0,37081,50000,4226,49420,0,0,0,0,0.00,0.00,0.00,0.00
2016-08-15 05:30:00,0,46257,0,0.00,0,0,0,0,38304,50000,4322,47650,0,0,0,0,0.00,0.00,0.00,0.00
2016-08-15 05:40:00,0,33229,0,0.00,0,0,0,0,25827,40281,4510,32816,0,0,0,0,0.00,0.00,0.00,0.00
2016-08-15 05:50:00,0,38718,0,0.00,0,0,0,0,33103,41972,2807,39652,0,0,0,0,0.00,0.00,0.00,0.00
2016-08-15 06:00:00,0,32442,0,0.00,0,0,0,0,28102,42847,4068,31298,0,0,0,0,0.00,0.00,0.00,0.00
2016-08-15 06:10:00,0,31635,0,0.00,0,0,0,0,23292,42015,5553,31412,0,0,0,0,0.00,0.00,0.00,0.00
2016-08-15 06:20:00,0,40582,0,0.00,0,0,0,0,31470,48525,5969,41144,0,0,0,0,0.00,0.00,0.00,0.00
2016-08-15 06:30:00,0,32977,0,0.00,0,0,0,0,30566,39141,2407,32258,0,0,0,0,0.00,0.00,0.00,0.00
2016-08-15 06:40:00,0,35898,0,0.00,0,0,0,0,30505,42785,3644,35547,0,0,0,0,0.00,0.00,0.00,0.00
2016-08-15 06:50:00,0,36884,0,0.00,0,0,0,0,28084,46664,5342,36785,0,0,0,0,0.00,0.00,0.00,0.00
2016-08-15 07:00:00,0,43616,0,0.00,0,0,0,0,36711,50000,4246,44240,0,0,0,0,0.00,0.00,0.00,0.00
2016-08-15 07:10:00,0,39697,0,0.00,0,0,0,0,30574,49769,4711,39461,0,0,0,0,0.00,0.00,0.00,0.00
2016-08-15 07:20:00,1,43299,0,0.00,0,2,1,1,37028,49933,4184,42564,0,0,0,0,0.00,0.00,0.00,0.00
2016-08-15 07:30:00,1,46610,0,0.00,0,2,1,2,40239,50000,3705,48723,0,0,0,0,0.00,0.00,0.00,0.00
2016-08-15 07:40:00,2,38578,0,0.00,0,2,1,2,30480,50000,5955,36693,0,0,0,0,0.00,0.00,0.00,0.00
2016-08-15 07:50:00,2,37972,0,0.00,0,2,1,2,33111,41819,2961,38508,0,0,0,0,0.00,0.00,0.00,0.00
2016-08-15 08:00:00,2,42263,0,0.00,2,2,0,2,32946,50000,5072,41800,0,0,0,0,0.00,0.00,0.00,0.00
2016-08-15 08:10:00,2,44630,0,0.00,2,2,0,2,40297,50000,3588,43962,0,0,0,0,0.00,0.00,0.00,0.00
2016-08-15 08:20:00,2,46705,0,0.00,2,2,0,2,41901,50000,2545,47648,0,0,0,0,0.00,0.00,0.00,0.00
2016-08-15 08:30:00,2,43567,0,0.00,2,2,0,2,33869,49276,4758,44842,0,0,0,0,0.00,0.00,0.00,0.00
2016-08-15 08:40:00,2,41180,0,0.00,0,2,1,2,34294,44196,2801,42256,0,0,0,0,0.00,0.00,0.00,0.00
2016-08-15 08:50:00,2,46139,0,0.00,2,2,0,2,41169,49942,3014,46435,0,0,0,0,0.00,0.00,0.00,0.00
2016-08-15 09:00:00,0,45713,0,0.00,0,0,0,0,39520,50000,3615,45462,0,0,0,0,0.00,0.00,0.00,0.00
2016-08-15 09:10:00,1,48156,0,0.00,0,2,1,0,43417,50000,2031,48650,0,0,0,0,0.00,0.00,0.00,0.00
2016-08-15 09:20:00,1,44278,0,0.00,0,2,1,2,36980,50000,4338,44285,0,0,0,0,0.00,0.00,0.00,0.00
2016-08-15 09:30:00,1,45647,0,0.00,0,2,1,2,36610,50000,4794,47457,0,0,0,0,0.00,0.00,0.00,0.00
2016-08-15 09:40:00,2,39726,0,0.00,2,2,0,2,25813,50000,8480,42292,0,0,0,0,0.00,0.00,0.00,0.00
2016-08-15 09:50:00,2,44540,0,0.00,2,2,0,2,36978,50000,3464,45184,0,0,0,0,0.00,0.00,0.00,0.00
2016-08-15 10:00:00,1,42479,0,0.00,0,2,1,0,37714,46326,2763,42055,0,0,0,0,0.00,0.00,0.00,0.00
2016-08-15 10:10:00,0,45167,0,0.00,0,0,0,0,39242,50000,3895,44692,0,0,0,0,0.00,0.00,0.00,0.00
2016-08-15 10:20:00,0,44909,0,0.00,0,0,0,0,37735,50000,3653,45372,0,0,0,0,0.00,0.00,0.00,0.00
2016-08-15 10:30:00,0,45699,0,0.00,0,0,0,0,38517,50000,3757,45958,0,0,0,0,0.00,0.00,0.00,0.00
2016-08-15 10:40:00,0,39587,0,0.00,0,0,0,0,31406,48769,4751,39188,0,0,0,0,0.00,0.00,0.00,0.00
2016-08-15 10:50:00,0,46310,0,0.00,0,0,0,0,40964,50000,2768,46920,0,0,0,0,0.00,0.00,0.00,0.00
2016-08-15 11:00:00,1,45141,0,0.00,0,2,1,2,37450,50000,4217,46250,0,0,0,0,0.00,0.00,0.00,0.00
2016-08-15 11:10:00,2,46482,0,0.00,2,2,0,2,40497,50000,2863,46965,0,0,0,0,0.00,0.00,0.00,0.00
2016-08-15 11:20:00,2,47741,0,0.00,2,2,0,2,42646,50000,2675,48964,0,0,0,0,0.00,0.00,0.00,0.00
2016-08-15 11:30:00,2,46671,0,0.00,2,2,0,2,42805,50000,2561,45994,0,0,0,0,0.00,0.00,0.00,0.00
2016-08-15 11:40:00,2,47351,0,0.00,2,2,0,2,40955,50000,3389,48732,0,0,0,0,0.00,0.00,0.00,0.00
2016-08-15 11:50:00,2,47888,0,0.00,2,2,0,2,42604,50000,2220,47998,0,0,0,0,0.00,0.00,0.00,0.00
2016-08-15 12:00:00,2,48035,0,0.00,2,2,0,2,42304,50000,2207,48410,0,0,0,0,0.00,0.00,0.00,0.00
2016-08-15 12:10:00,2,45376,0,0.00,2,2,0,2,40905,50000,2788,44986,0,0,0,0,0.00,0.00,0.00,0.00
2016-08-15 12:20:00,2,45550,0,0.00,2,2,0,2,41314,50000,2795,46593,0,0,0,0,0.00,0.00,0.00,0.00
2016-08-15 12:30:00,2,45573,0,0.00,2,2,0,2,39137,50000,3683,46490,0,0,0,0,0.00,0.00,0.00,0.00
2016-08-15 12:40:00,2,48949,0,0.00,2,2,0,2,45864,50000,1512,50000,0,0,0,0,0.00,0.00,0.00,0.00
2016-08-15 12:50:00,2,41742,0,0.00,2,2,0,2,35801,49862,4751,41036,0,0,0,0,0.00,0.00,0.00,0.00
2016-08-15 13:00:00,2,35410,0,0.00,2,2,0,2,30175,44300,4381,34512,0,0,0,0,0.00,0.00,0.00,0.00
2016-08-15 13:10:00,2,35105,0,0.00,2,2,0,2,30454,40878,2958,34710,0,0,0,0,0.00,0.00,0.00,0.00
2016-08-15 13:20:00,2,31370,0,0.00,2,2,0,2,28286,36713,2771,30190,0,0,0,0,0.00,0.00,0.00,0.00
2016-08-15 13:30:00,2,33494,0,0.00,2,2,0,2,30406,41862,3187,32370,0,0,0,0,0.00,0.00,0.00,0.00
2016-08-15 13:40:00,2,43004,0,0.00,2,2,0,2,38252,49227,3225,43344,0,0,0,0,0.00,0.00,0.00,0.00
2016-08-15 13:50:00,2,37922,0,0.00,2,2,0,2,32387,46539,3915,36744,0,0,0,0,0.00,0.00,0.00,0.00
2016-08-15 14:00:00,2,35614,0,0.00,2,2,0,2,29110,42272,4101,35181,0,0,0,0,0.00,0.00,0.00,0.00
2016-08-15 14:10:00,2,35955,0,0.00,2,2,0,2,31258,42301,3635,36294,0,0,0,0,0.00,0.00,0.00,0.00
2016-08-15 14:20:00,2,35117,0,0.00,2,2,0,2,31803,40470,2720,33734,0,0,0,0,0.00,0.00,0.00,0.00
2016-08-15 14:30:00,2,37056,0,0.00,2,2,0,2,32286,42696,3619,35900,0,0,0,0,0.00,0.00,0.00,0.00
2016-08-15 14:40:00,2,37349,0,0.00,2,2,0,2,29943,42977,4168,36363,0,0,0,0,0.00,0.00,0.00,0.00
2016-08-15 14:50:00,2,37112,0,0.00,2,2,0,2,32580,44668,3648,36490,0,0,0,0,0.00,0.00,0.00,0.00
2016-08-15 15:00:00,2,37706,0,0.00,2,2,0,2,34525,42397,2552,36640,0,0,0,0,0.00,0.00,0.00,0.00
2016-08-15 15:10:00,2,37730,0,0.00,2,2,0,2,32483,43611,3873,37936,0,0,0,0,0.00,0.00,0.00,0.00
2016-08-15 15:20:00,2,39422,0,0.00,2,2,0,2,31517,46805,4410,40640,0,0,0,0,0.00,0.00,0.00,0.00
2016-08-15 15:30:00,2,42742,0,0.00,2,2,0,2,37117,46978,2881,42582,0,0,0,0,0.00,0.00,0.00,0.00
2016-08-15 15:40:00,2,38336,0,0.00,2,2,0,2,32568,44415,3769,38267,0,0,0,0,0.00,0.00,0.00,0.00
2016-08-15 15:50:00,2,39836,0,0.00,2,2,0,2,30678,48916,5806,38738,0,0,0,0,0.00,0.00,0.00,0.00
2016-08-15 16:00:00,2,41818,0,0.00,2,2,0,2,38259,46532,2546,41642,0,0,0,0,0.00,0.00,0.00,0.00
2016-08-15 16:10:00,2,40860,0,0.00,2,2,0,2,35682,49109,4073,40264,0,0,0,0,0.00,0.00,0.00,0.00
2016-08-15 16:20:00,2,36982,0,0.00,2,2,0,2,32556,40690,2898,36633,0,0,0,0,0.00,0.00,0.00,0.00
2016-08-15 16:30:00,2,40729,0,0.00,2,2,0,2,34161,47330,3782,40470,0,0,0,0,0.00,0.00,0.00,0.00
2016-08-15 16:40:00,2,40042,0,0.00,2,2,0,2,34817,47900,4038,39438,0,0,0,0,0.00,0.00,0.00,0.00
2016-08-15 16:50:00,2,39397,0,0.00,2,2,0,2,30930,45644,4077,38749,0,0,0,0,0.00,0.00,0.00,0.00
2016-08-15 17:00:00,2,34631,0,0.00,2,2,0,2,32120,37642,1909,34634,0,0,0,0,0.00,0.00,0.00,0.00
2016-08-15 17:10:00,2,41576,0,0.00,2,2,0,2,34956,48144,4090,42536,0,0,0,0,0.00,0.00,0.00,0.00
2016-08-15 17:20:00,2,37892,0,0.00,2,2,0,2,31113,49219,5251,36132,0,0,0,0,0.00,0.00,0.00,0.00
2016-08-15 17:30:00,2,37223,0,0.00,2,2,0,2,32157,48105,4853,36594,0,0,0,0,0.00,0.00,0.00,0.00
2016-08-15 17:40:00,2,42872,0,0.00,2,2,0,2,38198,49721,4491,40488,0,0,0,0,0.00,0.00,0.00,0.00
2016-08-15 17:50:00,2,39475,0,0.00,2,2,0,2,34824,45657,3002,39176,0,0,0,0,0.00,0.00,0.00,0.00
2016-08-15 18:00:00,2,39448,0,0.00,2,2,0,2,30271,45710,4135,40029,0,0,0,0,0.00,0.00,0.00,0.00
2016-08-15 18:10:00,2,36783,0,0.00,2,2,0,2,30848,45398,4727,36042,0,0,0,0,0.00,0.00,0.00,0.00
2016-08-15 18:20:00,2,35938,0,0.00,2,2,0,2,30415,43749,4521,34122,0,0,0,0,0.00,0.00,0.00,0.00
2016-08-15 18:30:00,2,36808,0,0.00,2,2,0,2,32100,47307,4791,34644,0,0,0,0,0.00,0.00,0.00,0.00
2016-08-15 18:40:00,2,32381,0,0.00,2,2,0,2,29761,35401,1836,32053,0,0,0,0,0.00,0.00,0.00,0.00
2016-08-15 18:50:00,2,31289,0,0.00,2,2,0,2,27274,37330,2626,31476,0,0,0,0,0.00,0.00,0.00,0.00
2016-08-15 19:00:00,2,36160,0,0.00,2,2,0,2,30838,40088,3105,36783,0,0,0,0,0.00,0.00,0.00,0.00
2016-08-15 19:10:00,2,33588,0,0.00,2,2,0,2,29711,40201,3669,32192,0,0,0,0,0.00,0.00,0.00,0.00
2016-08-15 19:20:00,2,31973,0,0.00,2,2,0,2,23771,40093,4583,31546,0,0,0,0,0.00,0.00,0.00,0.00
2016-08-15 19:30:00,2,32781,0,0.00,2,2,0,2,27325,42194,5059,31102,0,0,0,0,0.00,0.00,0.00,0.00
2016-08-15 19:40:00,2,30324,0,0.00,2,2,0,2,26190,35624,2904,29463,0,0,0,0,0.00,0.00,0.00,0.00
2016-08-15 19:50:00,2,29072,0,0.00,2,2,0,2,26765,32565,2113,28637,0,0,0,0,0.00,0.00,0.00,0.00
2016-08-15 20:00:00,2,28971,0,0.00,2,2,0,2,26149,33388,1950,28619,0,0,0,0,0.00,0.00,0.00,0.00
2016-08-15 20:10:00,2,29996,0,0.00,2,2,0,2,23492,33583,2965,30872,0,0,0,0,0.00,0.00,0.00,0.00
2016-08-15 20:20:00,2,29807,0,0.00,2,2,0,2,26547,33158,2216,29438,0,0,0,0,0.00,0.00,0.00,0.00
2016-08-15 20:30:00,2,26092,0,0.00,2,2,0,2,23595,32256,2637,25024,0,0,0,0,0.00,0.00,0.00,0.00
2016-08-15 20:40:00,2,25424,0,0.00,2,2,0,2,20422,28987,2859,25513,0,0,0,0,0.00,0.00,0.00,0.00
2016-08-15 20:50:00,2,28373,0,0.00,2,2,0,2,23949,32454,2449,28772,0,0,0,0,0.00,0.00,0.00,0.00
2016-08-15 21:00:00,2,25751,0,0.00,2,2,0,2,24300,27821,1018,25564,0,0,0,0,0.00,0.00,0.00,0.00
2016-08-15 21:10:00,2,23776,0,0.00,2,2,0,2,20979,25573,1442,23994,0,0,0,0,0.00,0.00,0.00,0.00
2016-08-15 21:20:00,2,25566,0,0.00,2,2,0,2,23158,28150,1338,25368,0,0,0,0,0.00,0.00,0.00,0.00
2016-08-15 21:30:00,2,26550,0,0.00,2,2,0,2,22988,32836,3068,26038,0,0,0,0,0.00,0.00,0.00,0.00
2016-08-15 21:40:00,2,24466,0,0.00,2,2,0,2,19244,29493,3249,25095,0,0,0,0,0.00,0.00,0.00,0.00
2016-08-15 21:50:00,2,24712,0,0.00,2,2,0,2,21706,26567,1397,24482,0,0,0,0,0.00,0.00,0.00,0.00
2016-08-15 22:00:00,2,27487,0,0.00,2,2,0,2,23419,34973,3497,26997,0,0,0,0,0.00,0.00,0.00,0.00
2016-08-15 22:10:00,2,26516,0,0.00,2,2,0,2,23454,28914,1750,26514,0,0,0,0,0.00,0.00,0.00,0.00
2016-08-15 22:20:00,2,25275,0,0.00,2,2,0,2,21180,28966,2417,25274,0,0,0,0,0.00,0.00,0.00,0.00
2016-08-15 22:30:00,2,26792,0,0.00,2,2,0,2,22927,32347,2430,26656,0,0,0,0,0.00,0.00,0.00,0.00
2016-08-15 22:40:00,2,28793,0,0.00,2,2,0,2,22335,38745,5020,27467,0,0,0,0,0.00,0.00,0.00,0.00
2016-08-15 22:50:00,2,27866,0,0.00,2,2,0,2,26817,29725,874,27508,0,0,0,0,0.00,0.00,0.00,0.00
2016-08-15 23:00:00,2,27399,0,0.00,2,2,0,2,24676,34302,2690,27072,0,0,0,0,0.00,0.00,0.00,0.00
2016-08-15 23:10:00,2,28042,0,0.00,2,2,0,2,25559,32029,2088,27670,0,0,0,0,0.00,0.00,0.00,0.00
2016-08-15 23:20:00,2,27742,0,0.00,2,2,0,2,22467,33230,3589,29136,0,0,0,0,0.00,0.00,0.00,0.00
2016-08-15 23:30:00,2,27529,0,0.00,2,2,0,2,22177,30434,2729,28166,0,0,0,0,0.00,0.00,0.00,0.00
2016-08-15 23:40:00,2,27099,0,0.00,2,2,0,2,22167,30966,3047,28031,0,0,0,0,0.00,0.00,0.00,0.00
2016-08-15 23:50:00,2,26254,0,0.00,2,2,0,2,20504,32029,3385,26324,0,0,0,0,0.00,0.00,0.00,0.00
